Regional Weather Roundup
Issued by NWS Cleveland, OH

Home | Current Version | Previous Version | Text Only | Print | Product List | Glossary Off
Versions: 1 2 3 4 5 6 7 8 9 10 11 12 13 14 15 16 17 18 19 20 21 22 23 24 25 26 27 28 29 30 31 32 33 34 35 36 37 38 39 40 41 42 43 44 45 46 47 48 49 50

000
ASUS41 KCLE 252212
RWRCLE
OHIO REGIONAL WEATHER ROUNDUP
NATIONAL WEATHER SERVICE WILMINGTON, OH
600 PM EDT TUE JUL 25 2017

NOTE: "FAIR" INDICATES FEW OR NO CLOUDS BELOW 12,000 FEET WITH NO
SIGNIFICANT WEATHER AND/OR OBSTRUCTIONS TO VISIBILITY.

OHZ001>008-015>018-024>027-034-035-043-044-252300-
   NORTHWEST OHIO

CITY           SKY/WX    TMP DP  RH WIND       PRES   REMARKS
DEFIANCE       FAIR     N/A N/A N/A E9        30.20F
FINDLAY        FAIR      77  56  48 E10       30.20S
TOLEDO EXPRESS FAIR      77  54  44 E9        30.20F
TOLEDO EXEC    FAIR      77  59  53 E6        30.21F
LIMA           PTSUNNY   75  61  61 E8        30.21R
$$

OHZ009>014-019>023-028>033-038-089-252300-
   NORTHEAST OHIO

CITY           SKY/WX    TMP DP  RH WIND       PRES   REMARKS
CLE-HOPKINS    PTSUNNY   74  60  61 NE10      30.22F
CLE-LAKEFRONT  FAIR      71  59  65 N10       30.20F
CUY CO. ARPT   MOSUNNY   73  61  64 N7        30.22F
LORAIN-ELYRIA  FAIR      72  56  57 NE7       30.21F
ASHTABULA      FAIR      72  57  59 VRB7      30.24S
AKRON-CANTON   FAIR      77  56  48 E3        30.21S
WOOSTER        FAIR      75  58  55 CALM      30.21F
MANSFIELD      PTSUNNY   74  58  57 NE3       30.22F
YOUNGSTOWN     PTSUNNY   76  58  53 N10       30.21S
$$

OHZ042-051>053-060>062-070>072-077>081-252300-
  SOUTHWEST OHIO

CITY           SKY/WX    TMP DP  RH WIND       PRES   REMARKS
CINC-COVINGTON FAIR      80  61  52 E12       30.15F
CINC-LUNKEN    FAIR      80  64  58 E8        30.16F
HAMILTON       FAIR      79  62  56 E8        30.17F
DAYTON         FAIR      76  59  55 E6        30.19F
WRIGHT-PAT AFB FAIR      77  58  51 NE10      30.18F
DAYTON GENERAL FAIR      76  60  57 E9        30.17F
WILMINGTON     FAIR      75  63  66 E7        30.18F
$$

OHZ036-037-039>041-045>050-054>059-063>069-073>076-082>088-252300-
  CENTRAL AND SOUTHEAST OHIO

CITY           SKY/WX    TMP DP  RH WIND       PRES   REMARKS
COLUMBUS       FAIR      76  61  59 E8        30.18F
OSU AIRPORT    PTSUNNY   74  61  63 NE8       30.18F
BOLTON FIELD   MOSUNNY   77  61  57 E3        30.19F
RICKENBACK AFB FAIR      75  60  60 E8        30.18F
NEWARK         PTSUNNY   74  61  63 SE6       30.20F
MARION         PTSUNNY   73  59  61 NE7       30.21F
LANCASTER      CLOUDY    73  61  65 E5        30.20F
ZANESVILLE     CLOUDY    74  58  57 N5        30.21S
NEW PHILLY     FAIR      73  61  65 E3        30.21F
$$




USA.gov is the U.S. government's official web portal to all federal, state and local government web resources and services.